Weather History for Edwards AFB, CA

Change the Weather History Date:

Tuesday, January 8, 2013

  Actual Average Record
Temperature  
Mean Temperature 43 °F -  
Max Temperature 62 °F 57 °F 70 °F (2009)
Min Temperature 24 °F 30 °F 15 °F (2000)
Degree Days  
Heating Degree Days 22    
Moisture  
Dew Point 20 °F    
Average Humidity 46    
Maximum Humidity 64    
Minimum Humidity 27    
Precipitation  
Precipitation 0.00 in - - ()
Sea Level Pressure  
Sea Level Pressure 30.19 in    
Wind  
Wind Speed 4 mph (North)    
Max Wind Speed 8 mph    
Max Gust Speed -    
Visibility 10 miles    
Events      
Averages and records for this station are not official NWS values.
T = Trace of Precipitation, MM = Missing Value Source: NWS Daily Summary

Daily Weather History Graph

Daily Weather History Graph

Search for Another Location

Airport:

Trip Planner

Search our weather history database for the weather conditions in past years. The results will help you decide how hot, cold, wet, or windy it might be!

Date:

Astronomy

Jan. 08, 2013 Rise Set
Actual Time 6:59 AM PST 4:57 PM PST
Civil Twilight 6:32 AM PST 5:25 PM PST
Nautical Twilight 6:00 AM PST 5:56 PM PST
Astronomical Twilight 5:30 AM PST 6:26 PM PST
Moon 3:38 AM PST (1/8) 2:03 PM PST (1/8)
Length of Visible Light 10h 52m
Length of Day
9h 57m
Waning Crescent, 13% of the Moon is Illuminated
Jan 8
Waning Crescent
Jan 11
New
Jan 18
First Quarter
Jan 26
Full
Feb 3
Last Quarter

Hourly Weather History & Observations

Time (PST) Temp. Windchill Dew Point Humidity Pressure Visibility Wind Dir Wind Speed Gust Speed Precip Events Conditions
12:58 AM 28.4 °F 22.2 °F 16.3 °F 61% 30.14 in 10.0 mi SSW 5.8 mph - N/A   Clear
1:58 AM 28.0 °F 20.0 °F 15.4 °F 59% 30.12 in 10.0 mi WSW 8.1 mph - N/A   Clear
2:58 AM 30.6 °F - 18.0 °F 60% 30.12 in 10.0 mi North 2.3 mph - N/A   Clear
3:58 AM 27.0 °F 21.6 °F 12.6 °F 55% 30.14 in 10.0 mi WNW 4.6 mph - N/A   Clear
4:58 AM 26.6 °F 22.6 °F 13.8 °F 59% 30.13 in 10.0 mi SE 3.5 mph - N/A   Clear
5:58 AM 25.7 °F 21.5 °F 13.3 °F 59% 30.17 in 50.0 mi SW 3.5 mph - N/A   Clear
6:58 AM 24.4 °F 18.6 °F 13.8 °F 64% 30.20 in 90.0 mi South 4.6 mph - N/A   Mostly Cloudy
7:58 AM 27.5 °F - 13.8 °F 56% 30.22 in 90.0 mi West 2.3 mph - N/A   Mostly Cloudy
8:58 AM 33.3 °F - 16.5 °F 50% 30.26 in 90.0 mi NNE 2.3 mph - N/A   Mostly Cloudy
9:58 AM 37.8 °F - 17.4 °F 44% 30.26 in 90.0 mi Calm Calm - N/A   Mostly Cloudy
10:58 AM 45.5 °F 44.2 °F 19.6 °F 36% 30.22 in 90.0 mi East 3.5 mph - N/A   Mostly Cloudy
11:58 AM 50.5 °F - 21.0 °F 31% 30.19 in 90.0 mi North 3.5 mph - N/A   Mostly Cloudy
12:58 PM 56.7 °F - 25.0 °F 30% 30.17 in 90.0 mi NNE 4.6 mph - N/A   Mostly Cloudy
1:58 PM 60.6 °F - 27.7 °F 29% 30.15 in 90.0 mi NNE 4.6 mph - N/A   Mostly Cloudy
2:58 PM 62.1 °F - 28.0 °F 28% 30.14 in 90.0 mi NNE 1.2 mph - N/A   Partly Cloudy
3:58 PM 62.2 °F - 27.3 °F 27% 30.15 in 90.0 mi North 3.5 mph - N/A   Scattered Clouds
4:58 PM 59.0 °F - 27.0 °F 29% 30.16 in 90.0 mi North 3.5 mph - N/A   Partly Cloudy
5:58 PM 54.5 °F - 26.2 °F 34% 30.17 in 60.0 mi NNW 3.5 mph - N/A   Partly Cloudy
6:58 PM 45.7 °F 42.7 °F 23.0 °F 41% 30.21 in 60.0 mi SSE 5.8 mph - N/A   Partly Cloudy
7:58 PM 40.8 °F - 20.3 °F 44% 30.22 in 60.0 mi ESE 2.3 mph - N/A   Partly Cloudy
8:58 PM 42.1 °F 40.2 °F 23.0 °F 47% 30.22 in 60.0 mi NNW 3.5 mph - N/A   Partly Cloudy
9:58 PM 35.2 °F - 18.9 °F 51% 30.24 in 60.0 mi Calm Calm - N/A   Partly Cloudy
10:58 PM 34.3 °F - 17.2 °F 50% 30.24 in 10.0 mi SW 2.3 mph - N/A   Clear
11:58 PM 33.6 °F 29.4 °F 18.0 °F 53% 30.24 in 10.0 mi SSE 4.6 mph - N/A   Clear